• In Deutschland
  • Länderverzeichnis
  • Für 7 Tage
  • Wassertemperatur
  • Satellitenkarten
  • Wetterkarte
  • Widgets
  • user-avatar
    Anmelden

    Stündliche Wetter Suez

    Heute, 20 Juni, Mittwoch

    Zeit Temperatur Niederschläge Wind Luftdruck Luftfeuchtigkeit
    00:00 +29°C° 0 mm 4 m/S 757 mmHg 56%
    01:00 +29°C° 0 mm 4 m/S 757 mmHg 58%
    02:00 +28°C° 0 mm 3 m/S 757 mmHg 64%
    03:00 +27°C° 0 mm 3 m/S 758 mmHg 66%
    04:00 +27°C° 0 mm 2 m/S 758 mmHg 68%
    05:00 +27°C° 0 mm 2 m/S 758 mmHg 69%
    06:00 +28°C° 0 mm 2 m/S 758 mmHg 62%
    07:00 +29°C° 0 mm 2 m/S 759 mmHg 55%
    08:00 +30°C° 0 mm 2 m/S 759 mmHg 47%
    09:00 +32°C° 0 mm 2 m/S 759 mmHg 41%
    10:00 +34°C° 0 mm 3 m/S 759 mmHg 35%
    11:00 +36°C° 0 mm 3 m/S 759 mmHg 29%
    12:00 +37°C° 0 mm 3 m/S 759 mmHg 27%
    13:00 +38°C° 0 mm 3 m/S 758 mmHg 24%
    14:00 +40°C° 0 mm 4 m/S 758 mmHg 22%
    15:00 +40°C° 0 mm 4 m/S 758 mmHg 23%
    16:00 +39°C° 0 mm 5 m/S 758 mmHg 23%
    17:00 +39°C° 0 mm 5 m/S 758 mmHg 24%
    18:00 +37°C° 0 mm 5 m/S 758 mmHg 29%
    19:00 +35°C° 0 mm 6 m/S 759 mmHg 33%
    20:00 +34°C° 0 mm 6 m/S 759 mmHg 37%
    21:00 +33°C° 0 mm 5 m/S 759 mmHg 39%
    22:00 +32°C° 0 mm 4 m/S 759 mmHg 41%
    23:00 +31°C° 0 mm 3 m/S 760 mmHg 43%

    Morgen, 21 Juni, Donnerstag

    Zeit Temperatur Niederschläge Wind Luftdruck Luftfeuchtigkeit
    00:00 +30°C° 0 mm 3 m/S 760 mmHg 45%
    01:00 +30°C° 0 mm 2 m/S 760 mmHg 47%
    02:00 +29°C° 0 mm 2 m/S 760 mmHg 49%
    03:00 +29°C° 0 mm 2 m/S 760 mmHg 50%
    04:00 +28°C° 0 mm 2 m/S 760 mmHg 52%
    05:00 +28°C° 0 mm 2 m/S 760 mmHg 53%
    06:00 +29°C° 0 mm 2 m/S 760 mmHg 46%
    07:00 +31°C° 0 mm 2 m/S 760 mmHg 40%
    08:00 +32°C° 0 mm 2 m/S 760 mmHg 33%
    09:00 +35°C° 0 mm 2 m/S 759 mmHg 28%
    10:00 +37°C° 0 mm 2 m/S 759 mmHg 23%
    11:00 +39°C° 0 mm 3 m/S 759 mmHg 18%
    12:00 +40°C° 0 mm 4 m/S 759 mmHg 18%
    13:00 +41°C° 0 mm 4 m/S 758 mmHg 17%
    14:00 +42°C° 0 mm 5 m/S 758 mmHg 16%
    15:00 +42°C° 0 mm 6 m/S 758 mmHg 17%
    16:00 +41°C° 0 mm 6 m/S 757 mmHg 18%
    17:00 +41°C° 0 mm 7 m/S 757 mmHg 19%
    18:00 +39°C° 0 mm 6 m/S 757 mmHg 21%
    19:00 +37°C° 0 mm 5 m/S 758 mmHg 23%
    20:00 +36°C° 0 mm 5 m/S 758 mmHg 26%
    21:00 +35°C° 0 mm 4 m/S 758 mmHg 27%
    22:00 +35°C° 0 mm 3 m/S 759 mmHg 29%
    23:00 +34°C° 0 mm 3 m/S 759 mmHg 31%

    übermorgen, 22 Juni, Freitag

    Zeit Temperatur Niederschläge Wind Luftdruck Luftfeuchtigkeit
    00:00 +34°C° 0 mm 3 m/S 758 mmHg 31%
    01:00 +33°C° 0 mm 3 m/S 758 mmHg 32%
    02:00 +33°C° 0 mm 3 m/S 757 mmHg 32%
    03:00 +33°C° 0 mm 3 m/S 757 mmHg 33%
    04:00 +31°C° 0 mm 3 m/S 757 mmHg 33%
    05:00 +31°C° 0 mm 2 m/S 756 mmHg 34%
    06:00 +34°C° 0 mm 2 m/S 756 mmHg 30%
    07:00 +36°C° 0 mm 3 m/S 756 mmHg 26%
    08:00 +37°C° 0 mm 3 m/S 757 mmHg 22%
    09:00 +39°C° 0 mm 3 m/S 756 mmHg 20%
    10:00 +40°C° 0 mm 3 m/S 756 mmHg 18%
    11:00 +43°C° 0 mm 3 m/S 756 mmHg 16%
    12:00 +44°C° 0 mm 3 m/S 756 mmHg 15%
    13:00 +44°C° 0 mm 4 m/S 755 mmHg 14%
    14:00 +45°C° 0 mm 4 m/S 755 mmHg 13%
    15:00 +44°C° 0 mm 6 m/S 754 mmHg 18%
    16:00 +43°C° 0 mm 8 m/S 754 mmHg 23%
    17:00 +40°C° 0 mm 9 m/S 754 mmHg 28%
    18:00 +38°C° 0 mm 8 m/S 755 mmHg 35%
    19:00 +35°C° 0 mm 8 m/S 755 mmHg 42%
    20:00 +33°C° 0 mm 7 m/S 756 mmHg 48%
    21:00 +32°C° 0 mm 6 m/S 756 mmHg 51%
    22:00 +32°C° 0 mm 6 m/S 757 mmHg 54%
    23:00 +30°C° 0 mm 5 m/S 757 mmHg 57%

    23 Juni, Samstag

    Zeit Temperatur Niederschläge Wind Luftdruck Luftfeuchtigkeit
    00:00 +30°C° 0 mm 5 m/S 757 mmHg 60%
    01:00 +29°C° 0 mm 4 m/S 757 mmHg 62%
    02:00 +29°C° 0 mm 4 m/S 757 mmHg 64%
    03:00 +28°C° 0 mm 4 m/S 757 mmHg 66%
    04:00 +28°C° 0 mm 3 m/S 757 mmHg 68%
    05:00 +28°C° 0 mm 3 m/S 757 mmHg 70%
    06:00 +28°C° 0 mm 3 m/S 757 mmHg 64%
    07:00 +29°C° 0 mm 3 m/S 757 mmHg 59%
    08:00 +30°C° 0 mm 3 m/S 757 mmHg 53%
    09:00 +33°C° 0 mm 3 m/S 757 mmHg 46%
    10:00 +34°C° 0 mm 3 m/S 757 mmHg 39%
    11:00 +36°C° 0 mm 3 m/S 757 mmHg 32%
    12:00 +37°C° 0 mm 4 m/S 756 mmHg 28%
    13:00 +38°C° 0 mm 4 m/S 756 mmHg 24%
    14:00 +40°C° 0 mm 4 m/S 756 mmHg 21%
    15:00 +39°C° 0 mm 5 m/S 755 mmHg 22%
    16:00 +39°C° 0 mm 6 m/S 755 mmHg 23%
    17:00 +39°C° 0 mm 7 m/S 755 mmHg 24%
    18:00 +36°C° 0 mm 7 m/S 756 mmHg 30%
    19:00 +34°C° 0 mm 7 m/S 756 mmHg 37%
    20:00 +32°C° 0 mm 7 m/S 757 mmHg 44%
    21:00 +30°C° 0 mm 6 m/S 757 mmHg 49%
    22:00 +29°C° 0 mm 5 m/S 757 mmHg 53%
    23:00 +29°C° 0 mm 4 m/S 757 mmHg 58%

    24 Juni, Sonntag

    Zeit Temperatur Niederschläge Wind Luftdruck Luftfeuchtigkeit
    00:00 +28°C° 0 mm 4 m/S 757 mmHg 61%
    01:00 +28°C° 0 mm 3 m/S 757 mmHg 65%
    02:00 +27°C° 0 mm 3 m/S 757 mmHg 68%
    03:00 +27°C° 0 mm 2 m/S 757 mmHg 71%
    04:00 +26°C° 0 mm 2 m/S 756 mmHg 73%
    05:00 +26°C° 0 mm 2 m/S 756 mmHg 76%
    06:00 +27°C° 0 mm 2 m/S 756 mmHg 70%
    07:00 +28°C° 0 mm 2 m/S 757 mmHg 64%
    08:00 +28°C° 0 mm 2 m/S 757 mmHg 58%
    09:00 +30°C° 0 mm 2 m/S 757 mmHg 49%
    10:00 +32°C° 0 mm 2 m/S 756 mmHg 40%
    11:00 +35°C° 0 mm 3 m/S 756 mmHg 31%
    12:00 +36°C° 0 mm 3 m/S 756 mmHg 28%
    13:00 +37°C° 0 mm 3 m/S 755 mmHg 25%
    14:00 +38°C° 0 mm 4 m/S 755 mmHg 22%
    15:00 +38°C° 0 mm 4 m/S 755 mmHg 23%
    16:00 +39°C° 0 mm 5 m/S 755 mmHg 23%
    17:00 +39°C° 0 mm 5 m/S 755 mmHg 24%
    18:00 +36°C° 0 mm 5 m/S 755 mmHg 31%
    19:00 +34°C° 0 mm 6 m/S 756 mmHg 39%
    20:00 +32°C° 0 mm 6 m/S 756 mmHg 46%
    21:00 +32°C° 0 mm 6 m/S 756 mmHg 50%
    22:00 +30°C° 0 mm 5 m/S 756 mmHg 54%
    23:00 +29°C° 0 mm 4 m/S 757 mmHg 57%

    25 Juni, Montag

    Zeit Temperatur Niederschläge Wind Luftdruck Luftfeuchtigkeit
    00:00 +29°C° 0 mm 4 m/S 756 mmHg 61%
    01:00 +28°C° 0 mm 3 m/S 756 mmHg 64%
    02:00 +28°C° 0 mm 3 m/S 756 mmHg 67%
    03:00 +27°C° 0 mm 3 m/S 756 mmHg 70%
    04:00 +27°C° 0 mm 2 m/S 756 mmHg 73%
    05:00 +26°C° 0 mm 2 m/S 756 mmHg 75%
    06:00 +27°C° 0 mm 2 m/S 756 mmHg 69%
    07:00 +28°C° 0 mm 2 m/S 756 mmHg 62%
    08:00 +29°C° 0 mm 2 m/S 756 mmHg 56%
    09:00 +31°C° 0 mm 2 m/S 756 mmHg 47%
    10:00 +34°C° 0 mm 3 m/S 756 mmHg 38%
    11:00 +35°C° 0 mm 3 m/S 756 mmHg 29%
    12:00 +36°C° 0 mm 3 m/S 755 mmHg 26%
    13:00 +38°C° 0 mm 4 m/S 755 mmHg 23%
    14:00 +40°C° 0 mm 4 m/S 754 mmHg 20%
    15:00 +40°C° 0 mm 5 m/S 754 mmHg 21%
    16:00 +39°C° 0 mm 5 m/S 754 mmHg 22%
    17:00 +39°C° 0 mm 6 m/S 754 mmHg 24%
    18:00 +36°C° 0 mm 6 m/S 755 mmHg 31%
    19:00 +34°C° 0 mm 6 m/S 755 mmHg 39%
    20:00 +33°C° 0 mm 6 m/S 756 mmHg 46%
    21:00 +32°C° 0 mm 6 m/S 756 mmHg 51%
    22:00 +30°C° 0 mm 5 m/S 756 mmHg 56%
    23:00 +29°C° 0 mm 4 m/S 756 mmHg 61%
    Mehr zeigen